www.pogodaiklimat.ru

Погода и климат >> Архив погоды >> Аргентина >> Santiago del Estero


ПОГОДА в Santiago del Estero

  • Прогноз погоды в Santiago del Estero
  • Монитор погоды в Santiago del Estero
  • Климат города

АРХИВ ПОГОДЫ в Santiago del Estero

Время (UTC), дата Ветер
(напр.,м/с)
 
Видим.   Явления Облачность Т
(С)
Тd
(С)
f
(%)
Тe
(С)
Тes
(С)
Комфортность P
(гПа)
Po
(гПа)
Тmin
(С)
Tmax
(С)
R
(мм)
R24
(мм)
S
(см)
06 16.01 СВ 2 10 км ясно +23.6 +15.8 62 +27 +27 жарко 1009.7 987.2
09 16.01 штиль 0 10 км ясно +20.2 +16.6 80 +23 +23 комфорт 1010.5 987.8
12 16.01 СВ 3 12 км 1/0
[Ac trans]
+23.5 +16.6 65 +27 +32 душно 1012.3 989.6 +19.0 +28.2
15 16.01 В 3 12 км ясно +30.8 +19.3 50 +36 +53 опасность
солнечного
удара
1010.8 988.4
18 16.01 СВ 4 12 км 3/3 900 м
[Cu hum]
+34.4 +17.6 37 +38 +47 очень
душно
1008.3 986.0
21 16.01 В 4 12 км 1/1 1200 м
[Cu hum]
+32.2 +16.6 39 +35 +38 очень
душно
1005.6 983.2
00 17.01 В 3 10 км 8/0
[Ac und]
+31.4 +18.1 45 +36 +36 очень
душно
1006.8 984.4 +23.5 +36.0
03 17.01 В 3 10 км 5/0
[Ac As]
+27.8 +14.7 45 +30 +30 жарко 1009.2 986.9
06 17.01 штиль 0 10 км 6/0
[Ac As]
+25.9 +14.7 50 +28 +28 жарко 1008.5 986.2
09 17.01 ЮЗ 3 10 км ясно +22.8 +17.7 73 +28 +28 душно 1007.6 985.3
12 17.01 ЮВ 1 10 км 3/0
[Ac As]
+26.8 +17.7 57 +31 +37 душно 1009.1 986.6 +20.5 +31.4
15 17.01 Ю 3 10 км 10/0
[Ac As]
+29.0 +19.6 57 +35 +40 очень
душно
1010.3 987.8
18 17.01 Ю 7 10 км 6/0
[Ac As]
+27.8 +17.8 55 +32 +36 душно 1010.6 988.0
21 17.01 Ю 4 10 км 4/0
[Ac As]
+27.5 +16.7 52 +31 +33 душно 1010.2 987.4
00 18.01 Ю 3 10 км 6/0
[Ac As]
+25.3 +16.5 58 +29 +29 душно 1011.1 988.5 +25.3 +29.0
03 18.01 штиль 0 10 км слабый дождь 10/5 900 м
[Sc Ac As]
+22.4 +19.8 85 +28 +28 душно 1013.6 990.9
06 18.01 ЮВ 2 7000 м гроза, ливневой дождь туман 10/10 750 м
[Cb cap]
+20.2 +19.4 95 +25 +25 комфорт 1013.5 990.6 4
09 18.01 штиль 0 10 км в посл. час дождь 10/10 600 м
[St]
+19.6 +19.0 96 +22 +22 комфорт 1014.2 991.3
12 18.01 З 1 5000 м слабый дождь {гроза} 10/10 210 м
[St]
+19.4 +18.9 97 +23 +23 комфорт 1016.3 993.3 +19.4 +25.3 20
15 18.01 СЗ 2 12 км {дождь} 8/6 600 м
[Cu Sc Ac As]
+23.0 +18.6 76 +29 +34 очень
душно
1016.4 993.4
18 18.01 С 2 12 км {дождь} 4/1 900 м
[Cu hum Ac As]
+26.0 +19.4 67 +31 +45 очень
душно
1014.6 991.7 3
21 18.01 С 2 12 км 3/1 1050 м
[Sc Ci fib]
+27.6 +17.2 53 +32 +35 очень
душно
1011.6 989.0
00 19.01 С 1 10 км 3/0
[Ac As]
+24.4 +17.4 65 +28 +28 душно 1012.3 989.6 +19.4 +28.0
03 19.01 С 1 10 км ясно +20.2 +18.3 89 +25 +25 комфорт 1015.1 992.0
06 19.01 З 2 10 км 5/0
[Ac As]
+19.2 +17.6 90 +22 +22 комфорт 1014.6 991.4
09 19.01 штиль 0 10 км 8/0
[Ac As]
+19.9 +18.5 92 +23 +23 комфорт 1014.6 991.4
12 19.01 штиль 0 10 км 9/0
[Ac As]
+23.4 +19.1 77 +30 +33 очень
душно
1015.5 992.6 +19.0 +24.4 3
15 19.01 нст 1 10 км 9/0
[Ac As]
+27.6 +17.0 52 +31 +40 душно 1015.0 992.1
18 19.01 С 2 10 км 3/0
[Ac As]
+30.8 +15.9 41 +34 +48 очень
душно
1012.5 989.8
21 19.01 С 2 12 км 6/0
[Ac As]
+30.8 +15.1 39 +33 +36 душно 1010.3 987.6
00 20.01 СЗ 2 12 км 9/0
[Ac As]
+27.4 +19.1 61 +33 +33 очень
душно
1010.4 987.7 +23.4 +32.0
03 20.01 штиль 0 10 км зарница {гроза} 10/5 750 м
[Cb cap Ac As]
+25.1 +20.7 77 +31 +31 очень
душно
1011.3 988.6
06 20.01 штиль 0 10 км {гроза} 8/4 750 м
[Sc Ac As]
+23.4 +20.8 85 +31 +31 очень
душно
1009.9 987.4
09 20.01 СЗ 2 10 км 10/6 600 м
[Sc Ac As]
+23.6 +21.0 85 +30 +30 очень
душно
1009.7 987.2
12 20.01 С 2 10 км 10/5 750 м
[St Ac As]
+23.4 +21.0 86 +31 +32 очень
душно
1011.9 989.2 +22.7 +27.4
15 20.01 З 2 10 км 10/4 1200 м
[Sc Ac As]
+24.9 +20.7 78 +31 +35 очень
душно
1011.2 988.5
18 20.01 В 2 12 км 8/3 900 м
[Cu hum Ac As]
+28.8 +16.6 48 +32 +39 душно 1009.9 987.3
21 20.01 В 3 12 км 5/5 900 м
[Cu med, cong]
+29.4 +19.4 55 +35 +37 очень
душно
1007.0 984.5
00 21.01 СВ 2 10 км 1/1 900 м
[Sc diur, vesp]
+25.4 +20.6 75 +32 +32 очень
душно
1008.7 986.0 +23.4 +30.0
03 21.01 СВ 2 10 км ясно +21.8 +17.3 76 +26 +26 душно 1010.8 988.0
06 21.01 штиль 0 10 км ясно +18.4 +16.9 91 +19 +19 1008.7 985.8
09 21.01 штиль 0 10 км ясно +17.0 +15.7 92 +17 +17 1007.9 985.0
12 21.01 С 2 12 км 1/1 1050 м
[Sc]
+20.2 +18.6 91 +24 +30 комфорт 1009.2 986.2 +17.0 +25.4
15 21.01 В 1 12 км 3/3 1050 м
[Cu hum]
+26.0 +18.9 65 +31 +47 очень
душно
1008.1 985.4
18 21.01 В 1 12 км 1/1 1050 м
[Cu hum]
+30.4 +18.1 48 +35 +54 опасность
солнечного
удара
1004.8 982.6
21 21.01 С 3 12 км ясно +31.8 +17.6 43 +36 +39 очень
душно
1002.4 979.8
00 22.01 штиль 0 12 км ясно +27.6 +22.3 73 +36 +36 очень
душно
1003.5 980.9 +20.2 +32.5
03 22.01 С 2 10 км ясно +24.8 +19.6 73 +30 +30 душно 1004.7 982.2
06 22.01 штиль 0 10 км ясно +21.8 +19.3 86 +27 +27 душно 1003.8 981.3
09 22.01 штиль 0 10 км 3/0
[Ac As]
+20.4 +19.1 92 +24 +24 комфорт 1004.6 982.1
12 22.01 штиль 0 10 км слабый дождь 8/5 750 м
[Sc Ac As]
+23.4 +21.5 89 +32 +34 очень
душно
1006.7 984.1 +20.2 +27.6 0.2
15 22.01 СВ 2 10 км ясно +31.2 +20.2 52 +38 +57 опасность
солнечного
удара
1004.3 982.0
18 22.01 В 3 10 км {дождь} ясно +33.7 +18.8 41 +38 +55 опасность
солнечного
удара
1001.5 979.2 0.0
21 22.01 С 2 10 км 1/1 1200 м
[Cu hum]
+35.0 +18.8 39 +40 +44 очень
душно
999.5 977.3
00 23.01 штиль 0 10 км 1/0
[Ac As]
+30.0 +23.4 68 +41 +41 опасность
перегрева
1000.3 978.0 +23.4 +35.5

 

Местоположение метеостанции Santiago del Estero (Аргентина): широта -27.76 долгота -64.30 высота над уровнем моря 199 м.

В архиве по умолчанию представлена погода в Santiago del Estero за последнюю неделю. Архивные данные за месяц целиком и за предыдущие месяцы, начиная с января 2011 года, Вы можете получить, выбрав интересующий диапазон дат из раскрывающегося списка и нажав кнопку "Ввод!".

Внимание! Время в таблицах - всемирное. Для получения местного времени необходимо прибавить поправку, которая в Santiago del Estero равна -3 ч.

Смотрите также архив погоды в соседних городах и на ближайших метеорологических станциях:

Погода в San Miguel de Tucuman (Аргентина) (128 км)
Погода в San Fernando del Valle de Catamarca (Аргентина) (171 км)
Погода в Villa de Maria del Rio Seco (Аргентина) (246 км)
Погода в La Rioja (Аргентина) (304 км)
Погода в Ceres (Аргентина) (329 км)
Погода в Salta (Аргентина) (344 км)
Погода в Chamical (Аргентина) (347 км)
Погода в San Salvador de Jujuy (Аргентина) (384 км)
Погода в Presidencia Roque Saenz Pena (Аргентина) (395 км)
Погода в Cordoba (Аргентина) (395 км)

Пояснения к столбцам:

Ветер - указаны скорость ветра в м/с - средняя за 10 мин, порывы в срок и между сроками (в фигурных скобках) и направление, откуда дует ветер: С - северный, СВ - северо-восточный, В - восточный, ЮВ - юго-восточный, Ю - южный, ЮЗ - юго-западный, З - западный, СЗ - северо-западный.
Видимость - горизонтальная дальность видимости в метрах или километрах. При видимости от 1 до 10 км при отсутствии осадков обычно наблюдается дымка, при ухудшении видимости до 1 км и менее - туман. В сухую погоду видимость может ухудшаться дымом, пылью или мглою.
Явления - указаны атмосферные явления, наблюдавшиеся в срок или в последний час перед сроком; фигурными скобками обозначены явления, наблюдавшиеся между сроками (за 1-3 часа до срока); квадратными скобками обозначены град или гололедные отложения с указанием их диаметра в мм.
Облачность - указаны через наклонную черту общая и нижняя облачность в баллах и высота нижней границы облаков в метрах; квадратными скобками обозначены формы облаков: Ci - перистые, Cs - перисто-слоистые, Cc - перисто-кучевые, Ac - высококучевые, As - высокослоистые, Sc - слоисто-кучевые, Ns - слоисто-дождевые, Cu - кучевые, Cb - кучево-дождевые. Подробнее классификацию облаков см. в Атласе облаков (PDF).
T - Температура воздуха - температура, измеренная на высоте 2 м над землей.
Td - Температура точки росы - температура, при понижении до которой содержащийся в воздухе водяной пар достигнет насыщения.
f - Относительная влажность воздуха - влажноcть воздуха, измеренная на высоте 2 м над землей.
Te - Эффективная температура - температура, которую ощущает одетый по сезону человек в тени. Характеристика душности погоды. При расчете учитывается влияние влажности воздуха и скорости ветра на теплоощущения человека.
Tes - Эффективная температура на солнце - температура, которую ощущает человек, с поправкой на солнечный нагрев. Характеристика знойности погоды. Зависит от высоты солнца над горизонтом, облачности и скорости ветра. Ночью, в пасмурную погоду, а также при ветре 12 м/с и более поправка равна нулю.
P - Атмосферное давление - приведенное к уровню моря атмосферное давление.
Po - Атмосферное давление - измеренное на уровне метеостанции атмосферное давление.
Tmin - Минимальная температура - минимум температуры воздуха на высоте 2 м над землей.
Tmax - Максимальная температура - максимум температуры воздуха на высоте 2 м над землей.
R - Количество осадков - Количество выпавших осадков за период времени, мм. При наведении курсора мыши на число - период времени, за который выпало указанное количество осадков.
R24 - Количество осадков - Количество выпавших осадков за 24 часа, мм.
S - Снежный покров - Высота снежного покрова, см. При наведении курсора мыши на число - состояние снежного покрова и степень покрытия местности в баллах.